Address 0x34400280a169f4685193926a513618cf7fe7f0aa

Heist 
 
This address is reported to have been involved in a rug pull of SQUID. Proceed with caution.
Txn Hash Method
Block
From
To
Value [Txn Fee]
0xea8494e2603e1aaa9c93dbbf4f207c87ba25895fb5dac1ba585fda1da7e9c8c3Transfer122780352021-11-01 13:45:3233 days 3 mins ago0xc928b2eaa012c060a2f9d9cabe455954bd0e3a72 IN SQUID Token Rug 20.00001 BNB0.000105
0x0df9d3177ba8e642b6367b8a646597f0aa357ff677bca0c8a69e88318572ff53Transfer122778882021-11-01 13:38:0133 days 11 mins agoSQUID Token Rug 2OUT0x91fbb5adf8d328eb690350a15d87370abe0572fd6,139.79734360348108 BNB0.000105
0xde6d8d9b9f118f0aab79ad7028549c987c75ba35186ad6624234d109ac253655Withdraw122758852021-11-01 11:55:3733 days 1 hr agoSQUID Token Rug 2OUT Binance: WBNB Token0 BNB0.0001117
0xd22df2dbee1cee93afac7e7bbe85360d754b6938c73ab44216cdd17db9de85dfTransfer122703032021-11-01 6:56:2533 days 6 hrs agoSQUID Token Rug 2OUT 0x87230146e138d3f296a9a77e497a2a83012e9bc50 BNB0.00042035
0x5971f1868c259a09e3ef0786ca76fa33757c557126b8f2f350748dcc372c5eaeDeposit122693742021-11-01 6:08:0633 days 7 hrs agoSQUID Token Rug 2OUT Tornado.Cash: Proxy100 BNB0.004613395
0x4140b1953353c99703fb36117813fcac9d86f9280288fd16e5338db20374ad61Deposit122693732021-11-01 6:08:0333 days 7 hrs agoSQUID Token Rug 2OUT Tornado.Cash: Proxy100 BNB0.004638805
0x34fad20d8542d8aebe8ff7ae8e2fd5bad1c94025fe1523904688c464c1a83babDeposit122693712021-11-01 6:07:5733 days 7 hrs agoSQUID Token Rug 2OUT Tornado.Cash: Proxy100 BNB0.004638805
0x47519e185bbb54354c145bad9b7a6e2072c5afcea7f0d11ff5dd7b71eb018385Deposit122693692021-11-01 6:07:5133 days 7 hrs agoSQUID Token Rug 2OUT Tornado.Cash: Proxy100 BNB0.004664215
0x9faa96cfa1373e6c312ec975e3386d578c77eb29a9c9999d09b13ff287712d5dDeposit122693672021-11-01 6:07:4533 days 7 hrs agoSQUID Token Rug 2OUT Tornado.Cash: Proxy100 BNB0.004613395
0x5607c150596fdb11b1e90b4a9fcbb50f6ce7bd451e5917019961b0e5ea061c09Deposit122674822021-11-01 4:32:2333 days 9 hrs agoSQUID Token Rug 2OUT Tornado.Cash: Proxy100 BNB0.004638805
0x4c2e8185c31cbc970d3ce4c817e24d8f4671aff17979bdceed074bb3696676c3Deposit122674802021-11-01 4:32:1733 days 9 hrs agoSQUID Token Rug 2OUT Tornado.Cash: Proxy100 BNB0.004638805
0xd720fcf425c6655eef62e870b9cb383eb176c1e14836f323e4a4bef6f79c08fcDeposit122674782021-11-01 4:32:1133 days 9 hrs agoSQUID Token Rug 2OUT Tornado.Cash: Proxy100 BNB0.004664215
0x6615872b6c4f0f3b238f330ee6240159197a382dfc1bc77e9244ac0344fecea3Deposit122674762021-11-01 4:32:0533 days 9 hrs agoSQUID Token Rug 2OUT Tornado.Cash: Proxy100 BNB0.004638805
0x614c2ed35ad3a37ceaacccfafc49cc9bf2e9afef9f330b5bf1dc62eb82fccaefDeposit122674742021-11-01 4:31:5933 days 9 hrs agoSQUID Token Rug 2OUT Tornado.Cash: Proxy100 BNB0.004664215
0xf7c01b900b641964e14cf85e615e7689b6cc857e837640c957d11def2c829408Deposit122663012021-11-01 3:32:2433 days 10 hrs agoSQUID Token Rug 2OUT Tornado.Cash: Proxy100 BNB0.004664215
0x10e405bf1e191275f6e9a11808ef85925486954b253bc6817c237a207b5e815cDeposit122662972021-11-01 3:32:1233 days 10 hrs agoSQUID Token Rug 2OUT Tornado.Cash: Proxy100 BNB0.004689625
0x156c9472d8b248a15ec5d4ff1eedf9a0f54b431049b5a89450d703c41a641253Deposit122662912021-11-01 3:31:5433 days 10 hrs agoSQUID Token Rug 2OUT Tornado.Cash: Proxy100 BNB0.004613395
0xa634eb2e72fb3100a47573baa7a943ca980f4bfc8050f28202d42b5c8b00e4acDeposit122662892021-11-01 3:31:4833 days 10 hrs agoSQUID Token Rug 2OUT Tornado.Cash: Proxy100 BNB0.004638805
0xdbd911a067e64a1e1d78092a8f7e39e35e6e1177a97b5d668c83726e7baac24cDeposit122662862021-11-01 3:31:3933 days 10 hrs agoSQUID Token Rug 2OUT Tornado.Cash: Proxy100 BNB0.004638805
0x96de32c3f6a2cd7b14d06ee204ae4ffd73fdf9ba74e77ba55519d64cfc6543b7Deposit122660262021-11-01 3:17:4933 days 10 hrs agoSQUID Token Rug 2OUT Tornado.Cash: Proxy100 BNB0.004664215
0x87d3eaf49ac53f63c033a2c28503c57e81d04476ad5715949976fc1feffcf775Deposit122660252021-11-01 3:17:4533 days 10 hrs agoSQUID Token Rug 2OUT Tornado.Cash: Proxy100 BNB0.004638805
0x53d60acaae232977df812725b1a4d2c7c86637eb9cefa66463ea86cf0a2906c5Deposit122660232021-11-01 3:17:3533 days 10 hrs agoSQUID Token Rug 2OUT Tornado.Cash: Proxy100 BNB0.004664215
0x6a6c112edf1ffce11c8bca27b488181098dbcd2063fb440aac4e5e05e1bdbf98Deposit122660212021-11-01 3:17:2533 days 10 hrs agoSQUID Token Rug 2OUT Tornado.Cash: Proxy100 BNB0.004664215
0xde18ea0a68cf67c9ce513ab1f7618856267d3f791350befec195f0a80a186e01Deposit122660152021-11-01 3:17:0533 days 10 hrs agoSQUID Token Rug 2OUT Tornado.Cash: Proxy100 BNB0.004689625
0x17e5012935933bbe663a069946548e6204d18a4c65e3bfb6929c08524dd25297Deposit122659512021-11-01 3:13:1633 days 10 hrs agoSQUID Token Rug 2OUT Tornado.Cash: Proxy100 BNB0.004638805
[ Download CSV Export 
Latest 7 internal transactions
Parent Txn Hash Block From To Value
0xde6d8d9b9f118f0aab79ad7028549c987c75ba35186ad6624234d109ac253655122758852021-11-01 11:55:3733 days 1 hr ago Binance: WBNB TokenSQUID Token Rug 23,978.331937397645211339 BNB
0x09aa629c727b4d5544509820533547c2f262c3cc77adc95ff3eb6a98fbaeb4be122366312021-10-31 2:36:2434 days 11 hrs ago Binance: WBNB TokenSQUID Token Rug 24,219.391507582462308768 BNB
0x6c760cbab0cbf0bf76a00aed3879c1c231503c834a1fc91e2bece6a4834699ad122228762021-10-30 14:57:3334 days 22 hrs ago Binance: WBNB TokenSQUID Token Rug 2499.995730079603412342 BNB
0xbbc30a138c4f242610ef69e085ec41a2f212c544e11d1015dc58ab6ee8d7e93f122216312021-10-30 13:54:1834 days 23 hrs ago Binance: WBNB TokenSQUID Token Rug 21,306.464707966896527629 BNB
0x6e9ce564189477bb11bc2ddbcd929be60deca8e61723783861f97a4496764b46122185532021-10-30 11:19:3835 days 2 hrs ago Binance: WBNB TokenSQUID Token Rug 2898.439821245407736246 BNB
0x5c9fdb1ddc029828f71ff6e82e07b5f75cd78f4176314192daac613119743b95122110872021-10-30 5:05:1435 days 8 hrs ago Binance: WBNB TokenSQUID Token Rug 2714.207470812538067751 BNB
0x30cb803728fc475c7db7c164aa8da4ee67b3c257140221602e3a4fbe655b4abd121959942021-10-29 15:47:0035 days 22 hrs ago Binance: WBNB TokenSQUID Token Rug 227.449916028927816523 BNB
[ Download CSV Export 
Loading

Contract Name:
0 BNB

Compiler Version
0

Optimization Enabled:
0 BNB

Other Settings:
-NA-
Block Transaction Gas Used Reward
Age Block Fee Address BC Fee Address Voting Power Jailed Incoming
Block Uncle Number Difficulty Gas Used Reward
Loading
Loading
Make sure to use the "Vote Down" button for any spammy posts, and the "Vote Up" for interesting conversations.